Back to catalog

JUNTIAN-1 03

AliveMilitarySSO
NORAD 61906·PAYLOAD·🇨🇳 China
This satellite name has not been confirmed by official sources yet.

Launched Nov 11, 2024 from Jiuquan Satellite Launch Center

Loading…

Next Passes (next 24 hours)

TLE

FreshSource: Space-Track

Epoch: Sep 14, 2026, 23:29 UTC

1 61906U 24205N   26257.97914025  .00023442  00000-0  56154-3 0  9993
2 61906  97.4102 339.8442 0008838  76.6925 283.5307 15.41391634102695

Track JUNTIAN-1 03 in real time with AllMySat

Download on the App Store